Change the Weather History Date:

Tuesday, September 17, 2013

  Actual Average (KACT) Record (KACT)
Temperature  
Mean Temperature 83 °F 78 °F  
Max Temperature 92 °F 89 °F 100 °F (1997)
Min Temperature 75 °F 66 °F 48 °F (1903)
Degree Days  
Heating Degree Days 0 0  
Month to date heating degree days 0  
Since 1 July heating degree days 0  
Cooling Degree Days 18 13  
Month to date cooling degree days 260  
Year to date cooling degree days 2455  
Growing Degree Days 33 (Base 50)    
Moisture  
Dew Point 65 °F    
Average Humidity 57    
Maximum Humidity 76    
Minimum Humidity 36    
Precipitation  
Precipitation 0.00 in 0.10 in 2.21 in (1970)
Month to date precipitation 1.72  
Year to date precipitation 23.88  
Sea Level Pressure  
Sea Level Pressure 30.06 in    
Wind  
Wind Speed 6 mph (SSE)    
Max Wind Speed 14 mph    
Max Gust Speed 17 mph    
Visibility 10 miles    
Events      
T = Trace of Precipitation, MM = Missing Value Source: NWS Daily Summary

Daily Weather History Graph

Daily Weather History Graph

Search for Another Location

Airport or City:

Trip Planner

Search our weather history database for the weather conditions in past years. The results will help you decide how hot, cold, wet, or windy it might be!

Date:

Astronomy

Sep. 17, 2013 Rise Set
Actual Time 7:18 AM CDT 7:35 PM CDT
Civil Twilight 6:53 AM CDT 7:59 PM CDT
Nautical Twilight 6:25 AM CDT 8:28 PM CDT
Astronomical Twilight 5:56 AM CDT 8:56 PM CDT
Moon 6:20 PM CDT (9/17) 5:19 AM CDT (9/17)
Length of Visible Light 13h 06m
Length of Day
12h 17m
Waxing Gibbous, 96% of the Moon is Illuminated
Sep 17
Waxing Gibbous
Sep 19
Full
Sep 26
Last Quarter
Oct 4
New
Oct 11
First Quarter

Hourly Weather History & Observations

Time (CDT) Temp. Heat Index Dew Point Humidity Pressure Visibility Wind Dir Wind Speed Gust Speed Precip Events Conditions
12:15 AM 80.6 °F 82.5 °F 65.5 °F 60% 30.10 in 10.0 mi SSW 9.2 mph - N/A   Mostly Cloudy
12:35 AM 80.1 °F 82.0 °F 65.7 °F 61% 30.10 in 10.0 mi SSW 6.9 mph - N/A   Mostly Cloudy
12:55 AM 79.7 °F - 66.0 °F 63% 30.09 in 10.0 mi SSW 5.8 mph - N/A   Mostly Cloudy
1:15 AM 78.8 °F - 66.2 °F 65% 30.09 in 10.0 mi SSW 5.8 mph - N/A   Scattered Clouds
1:35 AM 78.3 °F - 66.4 °F 67% 30.09 in 10.0 mi South 5.8 mph - N/A   Mostly Cloudy
1:55 AM 78.3 °F - 66.6 °F 67% 30.10 in 10.0 mi South 4.6 mph - N/A   Overcast
2:15 AM 78.1 °F - 66.6 °F 68% 30.09 in 10.0 mi South 4.6 mph - N/A   Overcast
2:35 AM 77.9 °F - 66.7 °F 68% 30.09 in 10.0 mi SSW 4.6 mph - N/A   Overcast
2:55 AM 77.4 °F - 66.6 °F 69% 30.09 in 10.0 mi North - - N/A   Scattered Clouds
3:15 AM 77.2 °F - 66.7 °F 70% 30.08 in 10.0 mi SSW 3.5 mph - N/A   Mostly Cloudy
3:35 AM 77.4 °F - 66.7 °F 70% 30.08 in 10.0 mi Calm Calm - N/A   Overcast
3:55 AM 76.6 °F - 66.6 °F 71% 30.07 in 10.0 mi South 3.5 mph - N/A   Mostly Cloudy
4:15 AM 76.5 °F - 66.9 °F 72% 30.07 in 10.0 mi Calm Calm - N/A   Scattered Clouds
4:35 AM 76.3 °F - 66.9 °F 73% 30.07 in 10.0 mi Calm Calm - N/A   Scattered Clouds
4:55 AM 76.3 °F - 66.9 °F 73% 30.07 in 10.0 mi Calm Calm - N/A   Mostly Cloudy
5:15 AM 75.6 °F - 66.6 °F 74% 30.07 in 10.0 mi Calm Calm - N/A   Mostly Cloudy
5:35 AM 75.6 °F - 66.6 °F 74% 30.07 in 10.0 mi Calm Calm - N/A   Scattered Clouds
5:55 AM 75.4 °F - 66.6 °F 74% 30.07 in 10.0 mi North 3.5 mph - N/A   Scattered Clouds
6:15 AM 75.6 °F - 66.7 °F 74% 30.07 in 10.0 mi Calm Calm - N/A   Scattered Clouds
6:35 AM 75.4 °F - 66.6 °F 74% 30.08 in 10.0 mi North 3.5 mph - N/A   Scattered Clouds
6:55 AM 75.2 °F - 66.9 °F 75% 30.08 in 10.0 mi NNE 4.6 mph - N/A   Scattered Clouds
7:15 AM 75.4 °F - 66.9 °F 75% 30.08 in 10.0 mi Calm Calm - N/A   Scattered Clouds
7:35 AM 75.2 °F - 67.1 °F 76% 30.09 in 10.0 mi ENE 3.5 mph - N/A   Scattered Clouds
7:55 AM 75.4 °F - 66.9 °F 75% 30.10 in 10.0 mi Calm Calm - N/A   Scattered Clouds
8:15 AM 75.4 °F - 67.1 °F 75% 30.11 in 10.0 mi Calm Calm - N/A   Scattered Clouds
8:35 AM 76.8 °F - 67.3 °F 72% 30.11 in 10.0 mi East 4.6 mph - N/A   Clear
8:55 AM 78.3 °F - 67.5 °F 69% 30.11 in 10.0 mi East 4.6 mph - N/A   Clear
9:15 AM 79.3 °F - 67.5 °F 67% 30.11 in 10.0 mi East 5.8 mph - N/A   Clear
9:35 AM 81.0 °F 83.4 °F 67.5 °F 63% 30.12 in 10.0 mi East 4.6 mph - N/A   Clear
9:55 AM 81.9 °F 84.4 °F 67.1 °F 61% 30.12 in 10.0 mi ESE 5.8 mph - N/A   Clear
10:15 AM 83.3 °F 85.7 °F 66.7 °F 57% 30.13 in 10.0 mi SE 3.5 mph - N/A   Clear
10:35 AM 83.7 °F 85.3 °F 64.9 °F 53% 30.13 in 10.0 mi SSE 6.9 mph - N/A   Clear
10:55 AM 84.9 °F 86.6 °F 64.9 °F 51% 30.12 in 10.0 mi South 4.6 mph - N/A   Clear
11:15 AM 84.6 °F 86.3 °F 64.9 °F 52% 30.12 in 10.0 mi South 3.5 mph - N/A   Clear
11:35 AM 84.4 °F 86.1 °F 64.9 °F 52% 30.12 in 10.0 mi SSE 9.2 mph - N/A   Clear
11:55 AM 84.9 °F 86.6 °F 64.8 °F 51% 30.11 in 10.0 mi SSE 8.1 mph - N/A   Clear
12:15 PM 85.5 °F 86.8 °F 64.2 °F 49% 30.11 in 10.0 mi SSE 10.4 mph - N/A   Clear
12:35 PM 85.6 °F 86.8 °F 63.9 °F 48% 30.11 in 10.0 mi SSE 9.2 mph - N/A   Clear
12:55 PM 86.2 °F 87.3 °F 63.5 °F 47% 30.11 in 10.0 mi SSE 9.2 mph - N/A   Clear
1:15 PM 86.7 °F 87.5 °F 63.1 °F 45% 30.10 in 10.0 mi ESE 9.2 mph - N/A   Clear
1:35 PM 86.7 °F 88.4 °F 64.6 °F 48% 30.09 in 10.0 mi SSE 10.4 mph 17.3 mph N/A   Clear
1:55 PM 86.5 °F 88.1 °F 64.8 °F 48% 30.07 in 10.0 mi SSE 8.1 mph - N/A   Clear
2:15 PM 88.0 °F 89.6 °F 64.8 °F 46% 30.06 in 10.0 mi SSE 11.5 mph - N/A   Scattered Clouds
2:35 PM 87.8 °F 89.1 °F 64.2 °F 45% 30.06 in 10.0 mi SSE 9.2 mph - N/A   Scattered Clouds
2:55 PM 87.4 °F 88.8 °F 64.4 °F 46% 30.05 in 10.0 mi SE 10.4 mph - N/A   Mostly Cloudy
3:15 PM 87.8 °F 89.1 °F 64.2 °F 45% 30.04 in 10.0 mi SE 6.9 mph - N/A   Scattered Clouds
3:35 PM 89.6 °F 90.8 °F 63.9 °F 42% 30.03 in 10.0 mi East 6.9 mph - N/A   Clear
3:55 PM 90.3 °F 91.5 °F 63.5 °F 41% 30.02 in 10.0 mi SE 6.9 mph - N/A   Clear
4:15 PM 91.6 °F 91.6 °F 61.3 °F 36% 30.01 in 10.0 mi SSE 9.2 mph - N/A   Scattered Clouds
4:35 PM 91.2 °F 91.1 °F 60.4 °F 36% 30.00 in 10.0 mi South 9.2 mph - N/A   Scattered Clouds
4:55 PM 90.0 °F 89.4 °F 59.9 °F 36% 30.00 in 10.0 mi SSE 8.1 mph - N/A   Clear
5:15 PM 89.4 °F 89.5 °F 61.2 °F 39% 29.99 in 10.0 mi SSE 8.1 mph - N/A   Clear
5:35 PM 89.6 °F 89.8 °F 61.7 °F 39% 29.99 in 10.0 mi SSE 8.1 mph - N/A   Clear
5:55 PM 90.1 °F 90.2 °F 61.7 °F 38% 29.99 in 10.0 mi SE 13.8 mph - N/A   Scattered Clouds
6:15 PM 88.9 °F 89.4 °F 62.4 °F 41% 29.99 in 10.0 mi SE 9.2 mph - N/A   Scattered Clouds
6:35 PM 88.7 °F 89.1 °F 62.2 °F 41% 29.99 in 10.0 mi SE 10.4 mph - N/A   Clear
6:55 PM 87.8 °F 88.2 °F 62.2 °F 42% 29.99 in 10.0 mi SE 9.2 mph - N/A   Clear
7:15 PM 87.1 °F 88.0 °F 63.1 °F 45% 30.00 in 10.0 mi SSE 8.1 mph - N/A   Clear
7:35 PM 86.2 °F 86.8 °F 62.6 °F 45% 30.00 in 10.0 mi SSE 8.1 mph - N/A   Clear
7:55 PM 85.3 °F 86.1 °F 63.0 °F 47% 30.01 in 10.0 mi SSE 6.9 mph - N/A   Clear
8:15 PM 84.9 °F 85.9 °F 63.5 °F 48% 30.01 in 10.0 mi SSE 6.9 mph - N/A   Clear
8:35 PM 84.2 °F 85.4 °F 63.5 °F 50% 30.01 in 10.0 mi SE 4.6 mph - N/A   Clear
8:55 PM 83.5 °F 84.7 °F 63.5 °F 51% 30.02 in 10.0 mi SE 5.8 mph - N/A   Clear
9:15 PM 83.7 °F 84.7 °F 63.1 °F 50% 30.02 in 10.0 mi SE 5.8 mph - N/A   Clear
9:35 PM 82.4 °F 83.7 °F 63.5 °F 53% 30.03 in 10.0 mi ESE 4.6 mph - N/A   Clear
9:55 PM 81.5 °F 82.9 °F 63.7 °F 55% 30.03 in 10.0 mi ESE 4.6 mph - N/A   Clear
10:15 PM 81.5 °F 82.9 °F 63.7 °F 55% 30.04 in 10.0 mi SE 3.5 mph - N/A   Clear
10:35 PM 81.1 °F 82.5 °F 63.5 °F 55% 30.03 in 10.0 mi SSE 4.6 mph - N/A   Clear
10:55 PM 80.6 °F 82.0 °F 63.7 °F 56% 30.04 in 10.0 mi South 3.5 mph - N/A   Clear
11:15 PM 80.1 °F 81.7 °F 63.9 °F 58% 30.04 in 10.0 mi South 6.9 mph - N/A   Scattered Clouds
11:35 PM 79.9 °F - 64.4 °F 59% 30.04 in 10.0 mi South 3.5 mph - N/A   Clear
11:55 PM 80.1 °F 81.7 °F 64.2 °F 58% 30.04 in 10.0 mi SSW 4.6 mph - N/A   Clear